This demonstration page uses our WeatherBlox Daily Observations layout. Learn more.

Left ArrowRight Arrow

39.01783, -85.05884

Hourly Observations for September 8, 2017

Temp ( °F °C ) Dew Point ( °F °C ) Humidity (%) Winds ( mph kmh ) Pressure ( in mb ) Visibility ( mi km ) Precip ( " mm )
12:52 am 00:52 Partly Cloudy 54 12.2 51 10.6 90 90 SSW 6 9 30.12 1020 10 16 0.00 0.00
1:52 am 01:52 Mostly Cloudy 53 11.7 51 10.6 93 93 SW 5 7 30.13 1020 10 16 0.00 0.00
2:52 am 02:52 Mostly Cloudy 51 10.6 50 10 96 96 SSW 6 9 30.14 1021 10 16 0.00 0.00
3:52 am 03:52 Mostly Cloudy 54 12.2 51 10.6 90 90 SW 3 6 30.14 1021 10 16 0.00 0.00
4:52 am 04:52 Mostly Clear 50 10 50 10 100 100 SSW 6 9 30.16 1021 10 16 0.00 0.00
5:52 am 05:52 Clear 50 10 50 10 100 100 SSW 3 6 30.16 1022 10 16 0.00 0.00
6:52 am 06:52 Mostly Clear 49 9.4 49 9.4 100 100 SSW 3 6 30.18 1022 9 14 0.00 0.00
7:52 am 07:52 Mostly Sunny 50 10 50 10 100 100 Calm 30.19 1023 10 16 0.00 0.00
8:52 am 08:52 Mostly Sunny 57 13.9 52 11.1 83 83 WSW 6 9 30.20 1023 10 16 0.00 0.00
9:52 am 09:52 Sunny 61 16.1 52 11.1 72 72 W 8 13 30.22 1023 10 16 0.00 0.00
10:52 am 10:52 Mostly Sunny 65 18.3 52 11.1 63 63 WNW 7 11 30.23 1024 10 16 0.00 0.00
11:52 am 11:52 Mostly Sunny 69 20.6 52 11.1 55 55 VRB 6 9 30.23 1024 10 16 0.00 0.00
12:52 pm 12:52 Mostly Sunny 72 22.2 52 11.1 50 50 SW 6 9 30.23 1024 10 16 0.00 0.00
1:52 pm 13:52 Partly Cloudy 72 22.2 51 10.6 48 48 WSW 6 9 30.23 1024 10 16 0.00 0.00
2:52 pm 14:52 Partly Cloudy 74 23.3 52 11.1 46 46 VRB 3 6 30.22 1023 10 16 0.00 0.00
3:52 pm 15:52 Mostly Sunny 75 23.9 52 11.1 45 45 WNW 9 15 30.20 1023 10 16 0.00 0.00
4:52 pm 16:52 Mostly Sunny 74 23.3 51 10.6 45 45 Calm 30.19 1023 10 16 0.00 0.00
5:52 pm 17:52 Mostly Sunny 75 23.9 51 10.6 43 43 N 3 6 30.19 1022 10 16 0.00 0.00
6:52 pm 18:52 Mostly Sunny 72 22.2 53 11.7 52 52 WNW 5 7 30.19 1023 10 16 0.00 0.00
7:52 pm 19:52 Partly Cloudy 68 20 55 12.8 63 63 Calm 30.20 1023 10 16 0.00 0.00
8:52 pm 20:52 Mostly Cloudy 63 17.2 57 13.9 81 81 Calm 30.21 1023 10 16 0.00 0.00
9:52 pm 21:52 Mostly Clear 60 15.6 55 12.8 84 84 Calm 30.22 1023 10 16 0.00 0.00
10:52 pm 22:52 Mostly Clear 63 17.2 55 12.8 76 76 E 8 13 30.23 1024 10 16 0.00 0.00
11:52 pm 23:52 Partly Cloudy 62 16.7 54 12.2 75 75 E 8 13 30.25 1024 10 16 0.00 0.00

Powered by AerisWeather